Temp
-16 -16 -16 -16 -16 -16 -15 -16 -16 -16 -16 -15 -15 -15 -16 -16 -16 -16 -17 -17 -16 -16 -16 -16 -16 -16 -17 -17 -17 -17 -17 -17 -18 -18 -18 -18 -19 -19 -20 -20 -20 -21 -21
-15 -15 -15 -15 -15 -16 -16 -17 -16 -16 -16 -16 -15 -15 -16 -16 -17 -17 -16 -16 -16 -16 -17 -17 -16 -17 -17 -17 -17 -17 -18 -18 -18 -18 -18 -19 -19 -19 -20 -20 -21 -21 -21
-15 -15 -15 -15 -16 -15 -15 -15 -16 -15 -15 -16 -16 -16 -17 -17 -17 -16 -16 -16 -17 -17 -17 -17 -17 -17 -17 -17 -17 -18 -18 -18 -18 -18 -18 -19 -19 -20 -20 -21 -21 -21 -22
-15 -15 -15 -16 -16 -15 -16 -14 -15 -16 -16 -16 -16 -17 -17 -17 -17 -17 -17 -17 -17 -17 -17 -17 -17 -17 -18 -18 -18 -18 -18 -18 -19 -19 -19 -19 -20 -20 -21 -21 -21 -22 -22
-15 -15 -16 -16 -16 -16 -16 -16 -16 -16 -16 -17 -17 -16 -17 -17 -17 -17 -17 -17 -17 -17 -17 -17 -18 -18 -18 -18 -19 -18 -19 -19 -19 -19 -20 -20 -20 -21 -21 -21 -22 -22 -23
-15 -15 -16 -16 -16 -16 -16 -16 -16 -17 -17 -17 -17 -17 -17 -17 -18 -18 -18 -18 -18 -18 -18 -18 -18 -18 -18 -19 -19 -19 -19 -19 -20 -20 -20 -21 -21 -21 -21 -22 -22 -23 -22
-15 -15 -16 -16 -16 -16 -16 -17 -17 -17 -17 -17 -17 -17 -17 -18 -18 -18 -18 -18 -18 -18 -18 -18 -18 -19 -19 -19 -20 -20 -20 -20 -20 -20 -20 -21 -21 -22 -22 -22 -23 -23 -23
-16 -15 -15 -16 -16 -16 -16 -16 -17 -17 -17 -17 -17 -17 -18 -18 -18 -18 -18 -18 -18 -19 -19 -19 -19 -19 -19 -20 -20 -20 -20 -20 -20 -20 -21 -21 -22 -22 -22 -23 -23 -23 -24
-16 -16 -16 -16 -16 -16 -16 -16 -16 -16 -16 -17 -17 -18 -18 -18 -18 -18 -18 -19 -18 -19 -19 -19 -19 -19 -19 -20 -20 -20 -20 -20 -21 -21 -21 -22 -22 -23 -23 -24 -24 -24 -24
-16 -16 -16 -16 -16 -16 -16 -16 -16 -17 -17 -17 -18 -18 -18 -18 -19 -19 -19 -19 -19 -19 -19 -19 -20 -20 -20 -20 -20 -20 -20 -21 -21 -22 -22 -23 -23 -24 -24 -25 -25 -25 -26
-16 -16 -16 -16 -16 -16 -16 -16 -16 -17 -17 -17 -18 -18 -18 -18 -19 -19 -19 -19 -19 -19 -19 -19 -20 -20 -20 -21 -21 -21 -20 -21 -22 -22 -23 -23 -23 -24 -25 -25 -26 -26 -26
-16 -16 -16 -16 -16 -16 -16 -16 -16 -16 -17 -17 -18 -18 -18 -19 -19 -19 -19 -19 -19 -19 -20 -20 -20 -20 -21 -21 -21 -21 -21 -21 -22 -22 -23 -23 -24 -25 -25 -26 -27 -27 -28
-16 -16 -16 -16 -16 -16 -16 -16 -16 -17 -17 -17 -18 -18 -18 -18 -18 -19 -19 -19 -19 -20 -20 -21 -21 -21 -21 -21 -21 -21 -21 -22 -22 -23 -24 -24 -25 -25 -26 -26 -27 -28 -30
-16 -16 -16 -17 -17 -17 -17 -17 -17 -17 -17 -18 -18 -18 -18 -18 -19 -19 -19 -20 -20 -21 -21 -21 -21 -21 -21 -21 -21 -22 -22 -23 -24 -24 -24 -25 -25 -26 -27 -28 -28 -30 -31
-17 -17 -17 -17 -17 -17 -17 -17 -17 -18 -18 -18 -18 -19 -19 -20 -20 -20 -20 -20 -21 -21 -21 -21 -21 -21 -21 -21 -22 -22 -23 -24 -25 -25 -25 -26 -26 -27 -28 -29 -30 -31 -32
-18 -18 -18 -18 -18 -18 -18 -18 -18 -18 -18 -18 -19 -19 -19 -19 -20 -20 -21 -21 -21 -21 -21 -21 -21 -21 -22 -22 -22 -23 -24 -25 -25 -26 -26 -27 -27 -29 -30 -31 -31 -32 -33
-18 -18 -18 -18 -18 -18 -18 -18 -19 -19 -19 -19 -19 -20 -20 -21 -21 -21 -21 -21 -21 -21 -21 -22 -22 -22 -23 -23 -24 -25 -25 -26 -26 -27 -27 -28 -29 -30 -31 -31 -32 -33 -33
-18 -18 -18 -18 -19 -19 -19 -19 -19 -19 -20 -20 -20 -20 -20 -20 -21 -21 -21 -21 -21 -21 -22 -22 -23 -23 -24 -24 -25 -26 -26 -27 -27 -27 -28 -30 -31 -31 -32 -32 -33 -33 -34
-18 -19 -19 -19 -19 -19 -20 -19 -19 -19 -20 -20 -20 -20 -20 -20 -21 -21 -21 -21 -21 -22 -22 -23 -24 -24 -25 -25 -26 -27 -27 -27 -27 -29 -30 -31 -32 -32 -33 -33 -33 -34 -34
-19 -20 -20 -19 -19 -19 -19 -19 -19 -20 -20 -20 -20 -20 -20 -21 -21 -21 -21 -22 -23 -24 -24 -25 -25 -26 -26 -27 -27 -27 -27 -29 -30 -31 -32 -32 -33 -33 -33 -34 -34 -35 -36
-19 -18 -19 -19 -19 -19 -20 -20 -19 -20 -20 -21 -21 -21 -21 -21 -22 -22 -23 -24 -24 -25 -25 -26 -26 -27 -27 -27 -27 -28 -30 -30 -32 -32 -33 -33 -33 -34 -34 -34 -35 -36 -37
-20 -20 -20 -20 -20 -20 -20 -20 -20 -20 -21 -21 -21 -21 -22 -23 -23 -23 -24 -24 -25 -26 -26 -27 -27 -26 -27 -28 -29 -30 -31 -32 -32 -33 -33 -34 -34 -35 -35 -35 -36 -37 -38
-20 -20 -20 -20 -20 -20 -20 -21 -21 -21 -21 -21 -22 -23 -23 -23 -24 -24 -25 -25 -26 -26 -26 -26 -27 -28 -29 -30 -31 -32 -32 -33 -34 -34 -34 -35 -35 -36 -36 -37 -38 -38 -38
-21 -21 -21 -21 -21 -21 -21 -21 -22 -22 -22 -23 -24 -24 -24 -25 -25 -26 -26 -26 -26 -27 -28 -28 -29 -30 -31 -32 -32 -33 -33 -34 -34 -35 -35 -36 -37 -37 -38 -38 -39 -39 -39
-21 -21 -21 -22 -22 -22 -22 -23 -23 -24 -24 -25 -25 -26 -26 -26 -26 -27 -27 -28 -28 -29 -30 -31 -31 -32 -32 -33 -33 -34 -34 -35 -35 -36 -36 -37 -38 -39 -39 -39 -39 -39 -39
-22 -22 -22 -23 -23 -23 -24 -24 -25 -25 -25 -25 -26 -26 -27 -27 -28 -29 -29 -30 -30 -31 -31 -32 -32 -32 -33 -33 -34 -35 -36 -36 -37 -38 -38 -39 -40 -40 -39 -39 -39 -39 -39
Height
5710 5709 5708 5708 5709 5709 5711 5713 5713 5714 5714 5710 5705 5709 5707 5712 5711 5710 5710 5709 5706 5702 5700 5699 5698 5695 5693 5690 5687 5683 5678 5672 5668 5663 5655 5648 5640 5632 5625 5617 5610 5601 5592
5702 5703 5703 5700 5700 5702 5705 5703 5706 5706 5705 5703 5696 5701 5702 5703 5702 5701 5702 5700 5697 5694 5692 5690 5688 5685 5683 5680 5676 5670 5665 5658 5652 5647 5640 5633 5625 5618 5612 5604 5594 5582 5574
5696 5695 5697 5695 5693 5695 5693 5689 5692 5696 5694 5692 5693 5691 5692 5693 5694 5693 5691 5690 5687 5685 5682 5680 5677 5675 5671 5667 5662 5655 5650 5644 5637 5631 5625 5617 5611 5603 5597 5588 5581 5571 5557
5692 5691 5690 5688 5689 5687 5686 5683 5686 5689 5686 5687 5686 5686 5687 5686 5685 5683 5681 5678 5677 5674 5671 5670 5666 5662 5657 5653 5648 5642 5636 5628 5621 5615 5609 5602 5594 5586 5577 5570 5566 5554 5543
5686 5685 5684 5683 5682 5682 5682 5682 5682 5681 5680 5681 5679 5679 5679 5676 5675 5673 5670 5668 5666 5663 5660 5656 5653 5650 5645 5639 5634 5627 5620 5614 5607 5599 5591 5584 5576 5568 5558 5550 5541 5536 5525
5678 5677 5677 5677 5677 5676 5675 5675 5675 5675 5674 5672 5670 5671 5670 5666 5665 5663 5660 5657 5654 5650 5646 5644 5641 5636 5630 5624 5617 5611 5605 5598 5591 5584 5576 5567 5558 5550 5541 5531 5520 5510 5505
5671 5670 5670 5670 5668 5667 5666 5666 5667 5667 5665 5663 5662 5661 5658 5655 5653 5650 5647 5643 5640 5637 5634 5631 5626 5621 5615 5609 5603 5595 5588 5582 5575 5568 5559 5549 5541 5530 5522 5514 5500 5489 5478
5661 5661 5661 5661 5660 5660 5659 5658 5657 5656 5654 5653 5651 5649 5646 5643 5641 5638 5634 5631 5628 5624 5620 5616 5611 5606 5601 5594 5586 5579 5572 5564 5556 5548 5541 5532 5521 5510 5499 5490 5479 5470 5461
5654 5652 5651 5650 5650 5650 5649 5648 5647 5645 5644 5642 5641 5637 5634 5630 5627 5624 5621 5618 5614 5610 5605 5600 5596 5590 5585 5578 5571 5563 5555 5547 5540 5531 5521 5511 5500 5487 5474 5465 5454 5441 5436
5646 5645 5644 5644 5642 5641 5639 5637 5635 5633 5631 5630 5626 5622 5619 5617 5614 5611 5607 5603 5599 5596 5591 5585 5580 5574 5568 5561 5554 5548 5541 5533 5524 5514 5504 5493 5482 5471 5457 5443 5429 5418 5404
5637 5636 5634 5634 5632 5629 5627 5625 5623 5621 5618 5614 5611 5609 5606 5603 5600 5596 5592 5588 5584 5580 5576 5570 5564 5558 5551 5544 5538 5531 5524 5516 5507 5498 5488 5477 5466 5452 5439 5426 5411 5396 5385
5628 5626 5625 5623 5621 5619 5617 5614 5611 5608 5606 5603 5600 5597 5593 5589 5585 5581 5577 5573 5569 5565 5560 5554 5548 5541 5534 5527 5520 5513 5505 5497 5488 5479 5470 5459 5448 5436 5425 5410 5395 5381 5368
5615 5613 5611 5609 5607 5605 5603 5601 5598 5595 5592 5589 5586 5583 5579 5575 5572 5568 5563 5558 5553 5547 5542 5536 5530 5523 5516 5509 5501 5493 5485 5477 5468 5459 5450 5440 5429 5419 5406 5395 5381 5365 5356
5602 5600 5599 5597 5595 5593 5590 5588 5585 5582 5579 5576 5573 5570 5566 5562 5558 5553 5548 5542 5536 5530 5524 5517 5510 5503 5496 5490 5482 5474 5465 5455 5447 5438 5429 5420 5410 5399 5385 5372 5365 5352 5341
5591 5589 5587 5585 5583 5581 5578 5575 5572 5569 5566 5563 5560 5555 5551 5546 5540 5535 5530 5525 5519 5512 5506 5499 5492 5485 5478 5470 5462 5453 5443 5434 5425 5415 5407 5398 5388 5377 5364 5352 5341 5334 5324
5580 5578 5575 5573 5570 5568 5566 5563 5559 5556 5552 5548 5544 5539 5535 5530 5525 5519 5513 5508 5501 5493 5486 5480 5473 5465 5457 5449 5440 5430 5421 5412 5403 5394 5385 5374 5365 5354 5346 5336 5324 5316 5310
5567 5565 5562 5559 5557 5554 5551 5548 5545 5541 5537 5532 5528 5523 5518 5513 5506 5500 5494 5487 5480 5473 5466 5458 5451 5443 5434 5425 5417 5409 5400 5391 5382 5372 5362 5351 5342 5335 5326 5317 5308 5300 5293
5552 5550 5548 5545 5541 5538 5536 5533 5529 5524 5519 5515 5510 5504 5499 5493 5487 5480 5473 5465 5459 5452 5444 5436 5428 5419 5411 5403 5395 5387 5378 5368 5359 5349 5338 5329 5321 5314 5306 5298 5290 5285 5278
5537 5534 5532 5529 5526 5523 5519 5516 5512 5507 5503 5498 5492 5486 5479 5473 5466 5459 5451 5443 5435 5428 5420 5413 5405 5397 5389 5381 5373 5364 5355 5345 5335 5325 5316 5308 5300 5293 5286 5279 5273 5266 5261
5520 5518 5516 5513 5509 5506 5503 5499 5494 5488 5483 5478 5472 5466 5459 5452 5443 5435 5427 5419 5411 5404 5397 5390 5382 5374 5367 5358 5350 5340 5330 5318 5310 5302 5294 5286 5280 5273 5267 5262 5254 5250 5244
5505 5502 5498 5495 5491 5487 5483 5478 5473 5467 5462 5455 5449 5442 5435 5428 5420 5411 5404 5397 5390 5382 5375 5367 5359 5351 5342 5333 5323 5313 5304 5295 5286 5280 5273 5267 5260 5254 5246 5243 5237 5232 5230
5488 5484 5480 5476 5472 5468 5463 5458 5452 5446 5439 5432 5425 5418 5410 5403 5396 5390 5382 5375 5367 5359 5351 5342 5334 5324 5314 5305 5296 5287 5280 5271 5263 5257 5251 5246 5239 5234 5228 5224 5220 5218 5217
5469 5465 5460 5456 5451 5446 5441 5435 5429 5423 5416 5408 5402 5395 5389 5382 5374 5366 5358 5350 5342 5334 5325 5315 5305 5296 5286 5277 5268 5261 5255 5248 5241 5234 5230 5223 5217 5213 5210 5207 5205 5205 5206
5449 5445 5441 5436 5430 5425 5419 5413 5407 5401 5394 5388 5381 5374 5366 5358 5350 5341 5333 5324 5314 5305 5295 5285 5275 5266 5258 5249 5241 5234 5229 5223 5217 5212 5207 5203 5198 5194 5193 5193 5193 5194 5196
5430 5426 5421 5416 5410 5405 5399 5393 5386 5380 5373 5366 5358 5350 5342 5333 5323 5313 5304 5294 5284 5275 5265 5255 5246 5238 5230 5223 5215 5207 5201 5196 5192 5189 5186 5183 5180 5179 5180 5181 5182 5185 5186
5412 5407 5402 5397 5391 5385 5379 5372 5365 5358 5350 5342 5333 5323 5313 5303 5293 5283 5272 5262 5253 5243 5234 5225 5217 5209 5202 5195 5188 5182 5177 5173 5171 5168 5168 5167 5166 5167 5169 5171 5173 5175 5177
Wind_Speed
22 24 25 26 26 27 25 25 28 29 34 41 43 42 36 26 25 24 23 29 32 33 33 34 34 35 36 38 41 44 47 50 48 46 48 51 55 58 61 64 66 70 74
29 25 27 37 32 27 21 35 30 35 41 29 33 24 29 23 23 23 29 31 34 35 34 34 35 36 38 42 45 48 48 49 48 48 50 56 57 61 64 66 69 72 75
25 28 28 28 22 18 27 26 34 29 27 22 18 20 17 22 27 29 32 34 34 34 36 37 38 41 43 47 49 51 52 51 52 53 57 59 62 65 68 70 75 76 78
24 26 23 18 21 21 20 17 27 25 20 22 21 21 24 26 30 32 36 35 37 38 38 40 42 44 47 51 53 55 57 57 56 57 61 63 66 68 71 73 74 78 79
27 25 22 22 20 21 20 21 22 24 25 25 24 29 31 30 33 36 38 38 40 41 42 42 45 48 52 54 56 60 61 60 60 62 65 68 71 72 74 77 80 81 82
30 25 23 22 23 23 24 26 28 29 31 31 31 34 36 36 38 39 39 41 42 43 44 47 49 52 54 58 60 62 64 64 64 67 70 75 76 76 79 82 84 86 90
26 22 23 25 24 26 27 29 30 34 34 33 37 40 40 41 41 39 40 42 44 46 48 50 52 54 56 59 63 64 66 67 70 73 78 80 81 80 83 86 88 90 94
29 27 27 27 27 27 30 32 34 35 34 38 40 43 44 43 42 42 43 45 47 49 51 53 54 56 59 63 63 64 66 69 73 76 80 84 84 86 87 89 90 94 96
29 31 31 30 31 32 32 33 36 36 37 38 43 48 45 43 44 45 47 48 50 52 54 56 57 59 66 67 66 67 67 70 74 79 83 86 86 87 88 91 94 99 99
28 28 31 34 34 35 37 37 38 38 38 43 47 45 45 46 47 50 51 52 54 55 57 58 61 68 72 69 69 69 71 74 77 82 84 86 87 88 90 94 98 99 102
34 34 35 37 38 39 39 41 43 40 45 46 47 47 48 50 52 54 55 57 58 60 62 63 67 73 66 68 71 74 76 80 85 86 88 89 90 90 92 95 98 99 100
40 41 42 42 41 41 41 42 43 46 48 50 51 51 53 54 56 57 59 62 64 65 66 69 72 67 67 71 76 78 83 86 90 91 91 91 91 90 92 95 96 96 91
43 44 46 46 45 45 44 46 47 48 51 53 54 55 56 59 61 63 64 65 67 69 71 72 71 70 72 77 81 85 88 91 91 89 89 88 89 92 94 95 95 90 80
40 41 43 45 47 48 49 49 50 51 53 55 56 57 60 63 64 66 69 71 73 74 71 69 72 77 80 84 87 89 92 91 88 87 86 88 91 94 95 93 88 78 70
43 42 43 46 47 49 50 51 52 53 55 57 59 61 63 65 67 70 71 70 68 69 75 79 81 84 88 90 91 93 90 87 86 87 87 91 93 94 91 87 79 70 67
46 47 46 47 49 51 52 53 55 57 58 59 59 58 59 63 66 67 69 72 75 78 83 87 90 92 94 95 94 89 85 85 86 87 91 93 94 91 85 77 71 66 64
51 51 47 50 51 51 53 54 57 57 58 56 58 61 67 71 75 77 80 82 85 88 89 91 93 95 95 91 86 84 85 86 88 92 94 95 91 87 78 71 65 65 62
52 53 52 48 51 53 54 58 60 59 59 62 64 66 68 72 77 80 83 86 89 91 92 93 92 91 88 85 85 85 86 89 93 95 95 91 87 79 72 67 65 64 59
45 51 53 55 52 56 60 62 58 63 67 68 70 72 74 79 82 84 85 85 87 89 89 88 87 86 85 86 86 88 91 94 96 94 90 85 79 73 68 66 64 62 55
57 55 55 58 60 59 60 64 72 69 72 74 74 77 80 83 83 84 83 83 83 82 83 83 84 85 86 87 90 94 97 96 94 90 84 79 74 70 68 66 61 57 48
60 60 60 64 62 64 68 72 75 75 78 80 83 85 84 83 81 78 77 77 78 80 82 84 86 87 90 95 98 98 96 94 89 84 79 74 72 70 66 62 57 48 39
59 60 61 62 64 66 70 73 76 80 80 80 82 82 77 74 73 75 78 80 83 85 87 89 93 97 99 99 98 96 92 87 83 80 77 75 71 67 60 57 48 38 33
59 60 61 65 68 71 73 75 77 78 78 75 72 73 75 77 80 82 84 86 88 92 96 99 99 100 100 98 95 91 86 82 80 79 75 70 65 60 55 45 36 32 28
60 65 67 70 71 71 71 71 71 73 73 73 75 78 80 82 85 87 91 95 98 99 99 99 98 97 94 91 89 87 84 82 79 75 70 62 56 51 41 33 30 28 26
64 64 64 65 66 68 70 71 73 74 76 78 80 83 86 90 93 95 97 97 97 97 96 95 93 90 89 87 87 85 82 79 74 68 58 50 42 36 31 28 26 25 24
61 63 65 67 69 71 73 75 77 80 82 86 89 91 92 93 93 94 94 94 93 92 90 90 90 89 88 86 83 80 75 68 59 51 42 34 30 28 26 24 24 23 23
Wind_Direction
265 265 269 265 264 264 264 251 252 254 259 264 253 256 228 247 257 267 273 271 274 278 279 281 284 288 291 296 299 299 299 303 304 304 307 309 309 310 309 309 310 311 312
268 273 275 277 272 252 276 260 258 264 263 279 252 234 235 257 279 273 271 273 275 278 281 285 287 290 291 293 296 299 305 304 305 307 309 311 310 308 307 306 307 309 311
278 291 287 280 297 275 291 278 252 261 280 303 298 294 284 281 276 276 276 278 278 284 286 288 289 289 292 297 300 305 305 303 303 307 309 309 310 308 307 307 309 311 311
280 285 283 293 294 300 309 281 257 264 286 283 288 283 276 277 275 277 279 283 285 286 288 285 288 292 296 299 303 306 306 306 304 305 307 308 309 308 307 307 310 310 310
285 282 281 281 286 290 296 290 287 287 283 284 284 282 279 285 283 281 283 285 285 285 286 291 293 295 297 303 306 308 308 304 302 303 306 308 307 307 307 308 309 310 313
282 278 280 283 285 286 290 292 288 286 285 286 289 287 287 287 284 283 285 287 287 289 291 292 293 297 303 305 308 308 307 305 303 303 307 310 308 306 308 308 309 313 315
268 274 274 277 284 290 288 286 282 281 283 286 286 287 288 286 285 286 288 289 288 287 290 294 299 301 303 306 306 307 308 305 305 305 306 308 306 307 308 309 311 314 316
272 274 275 279 283 284 283 283 280 279 282 284 284 285 283 282 283 284 286 287 289 292 294 297 298 300 303 305 306 306 306 306 305 305 306 305 305 307 309 311 312 314 317
271 276 281 284 285 283 282 279 279 277 276 276 280 279 284 287 290 290 290 290 290 292 295 296 297 298 302 302 303 306 307 306 306 306 306 305 306 308 309 310 312 315 317
268 273 279 281 280 280 281 282 279 277 278 277 278 285 288 288 287 288 289 290 292 293 293 294 296 301 302 300 299 302 304 305 308 307 304 305 306 309 309 311 314 315 318
273 274 277 278 279 281 282 283 284 279 281 283 283 284 285 286 287 288 289 290 291 293 295 295 298 302 300 301 301 301 302 306 309 307 305 305 306 307 309 312 314 317 317
272 273 278 280 280 280 281 283 284 284 284 284 284 284 285 286 286 287 289 291 293 294 294 296 300 300 300 299 302 303 306 307 306 306 304 304 305 306 309 311 314 316 315
279 282 283 284 285 284 284 283 284 284 284 284 285 286 286 286 286 287 289 290 292 294 296 297 298 296 296 301 302 303 303 304 303 302 302 303 304 307 309 311 315 313 311
284 284 285 285 284 283 282 281 281 282 283 284 285 286 286 287 288 288 289 290 290 294 299 297 297 298 300 301 301 300 301 302 300 301 302 303 305 307 309 313 313 310 310
281 281 282 282 282 282 281 281 282 282 284 285 287 286 287 289 289 289 293 297 298 297 298 298 298 298 297 298 300 301 300 299 300 301 302 304 305 307 312 312 310 310 309
278 278 277 278 279 280 281 282 284 285 286 286 287 290 295 296 297 297 296 295 293 294 294 294 295 296 297 298 299 299 298 299 300 301 302 303 305 310 310 309 308 308 308
280 278 277 275 276 278 283 285 284 285 288 287 288 292 293 292 291 291 293 292 292 292 293 295 294 294 296 297 297 297 298 299 300 301 301 304 308 308 308 307 306 307 306
276 272 272 276 279 281 279 283 278 280 279 280 281 283 288 291 292 293 294 294 293 293 292 292 292 294 295 295 296 296 297 298 298 299 304 306 306 306 306 306 306 305 303
268 273 275 271 274 275 277 279 278 285 289 285 286 285 288 291 291 291 291 292 292 290 291 292 292 293 294 294 295 296 296 296 299 303 303 304 304 304 304 304 304 303 301
279 280 278 279 280 279 280 277 282 285 286 287 287 287 287 290 291 289 289 289 290 291 291 291 291 292 293 294 294 294 296 301 300 301 302 302 302 302 303 303 301 300 296
279 279 279 280 281 280 282 283 285 286 287 284 282 288 289 290 289 289 289 290 290 290 289 290 292 292 292 292 295 298 298 298 299 299 300 300 300 301 301 300 298 296 288
278 281 282 282 283 284 284 284 283 285 288 287 288 291 290 290 290 290 290 289 290 291 291 291 291 292 295 296 295 295 296 296 297 298 298 299 300 299 298 296 294 286 279
282 283 283 284 285 285 285 286 287 288 289 289 288 288 289 289 290 290 290 290 290 290 291 292 294 293 293 293 293 294 295 295 295 296 297 297 296 295 294 291 284 278 268
280 281 283 285 286 286 286 287 288 288 287 287 288 288 288 289 290 289 289 290 292 292 292 291 291 291 292 293 294 295 295 294 294 294 295 295 292 290 287 280 275 267 258
281 282 283 284 285 286 287 286 285 285 287 288 289 289 290 290 291 292 292 292 291 292 292 292 292 293 293 293 292 292 292 292 292 293 293 289 285 280 276 271 265 258 251
282 283 283 284 285 285 285 286 287 288 289 290 291 292 293 293 293 293 293 293 293 294 294 293 293 292 292 292 291 290 290 291 291 289 286 280 273 271 269 263 257 251 245